Location: Unspecified
(0.0000°N, 1.0000°E)
Time: 22:26:43
(UTC+02:00)

Daily predictions for brighter satellites

Satellite Brightness Start Highest point End
(mag) Time Altitude Azimuth Time Altitude Azimuth Time Altitude Azimuth
ARIANE 5 R/B 4.0 18:59:28 10° W 19:04:22 80° N 20:19:28 10° E
BLOCK DM-SL R/B 3.0 20:13:48 10° W 20:16:34 90° SSW 20:29:14 10° E
Cosmos 1092 Rocket 4.1 20:17:53 10° S 20:24:05 62° E 20:30:10 10° NNE
Helios 1B rocket 3.8 20:23:14 10° N 20:27:11 46° WNW 20:31:10 10° SSW
ARIANE 5 DEB (SYLDA) 2.0 20:25:33 10° WSW 20:27:12 36° S 20:29:37 10° ESE
Meteor 1-24 Rocket 4.0 20:21:56 10° SSE 20:27:35 48° E 20:32:59 10° NNE
CZ-4 R/B 4.3 20:25:42 10° SW 20:27:35 13° WSW 20:29:27 10° WNW
Ariane H10 3.6 20:27:34 10° WNW 20:30:41 42° NNE 20:41:46 10° E
Ariane H10-3 3.4 20:28:57 10° NW 20:30:51 31° NNE 20:34:14 10° E
ARIANE 3 DEB 3.7 20:21:32 10° W 20:31:06 73° S 20:34:59 10° E
Cosmos 1697 Rocket 4.1 20:27:30 10° NNE 20:31:15 18° ENE 20:34:59 10° ESE
deb Ariane 4.3 20:28:57 10° WSW 20:35:56 32° SSW 20:38:23 11° SE
ARIANE 5 R/B 1.9 20:33:29 10° W 20:36:14 86° S 20:48:00 10° E
Cosmos 1408 Rocket 4.0 20:32:52 10° SSE 20:37:04 40° E 20:41:12 10° NNE
Cosmos 1470 3.8 20:34:22 10° NNE 20:37:43 26° E 20:41:04 10° SE
Cosmos 2026 Rocket 4.4 20:33:21 10° SSE 20:38:56 39° E 20:44:30 10° NNE
Intelsat 3F5 C 3.0 20:39:16 10° WNW 20:41:33 86° NNE 20:42:57 18° ESE
Meteor 1-28 Rocket 4.3 20:38:30 10° N 20:42:05 47° WNW 20:45:44 10° SSW
MSX 3.8 20:36:24 10° SSE 20:42:10 82° ENE 20:47:55 10° N
Cosmos 1076 Rocket 3.7 20:38:37 10° S 20:42:43 49° E 20:46:49 10° NNE
Cosmos 1733 4.5 20:40:37 10° NE 20:43:34 21° E 20:45:41 14° SE
Abrixas 4.3 20:41:22 10° N 20:43:38 19° NE 20:45:11 14° E
Cosmos 405 Rocket 2.6 20:40:36 10° S 20:44:19 90° E 20:47:59 10° N
COSMOS 2441 4.3 20:41:53 10° SSE 20:46:44 84° ENE 20:51:31 10° N
Cosmos 1763 Rocket 3.8 20:47:12 10° N 20:52:00 43° ENE 20:56:10 13° SSE
GPS 2-15 Rocket1 4.4 20:53:10 10° SW 20:56:53 22° SSE 20:58:28 19° SE
Ariane H10+ 2.3 20:47:56 10° WSW 20:58:12 57° S 21:00:29 23° ESE
Spot 1 4.4 20:57:15 10° S 21:01:39 68° WSW 21:05:49 10° NNW
Cosmos 968 Rocket 4.2 21:02:25 10° SSW 21:07:25 55° WNW 21:12:27 10° N
Cosmos 1378 3.3 21:04:58 10° S 21:08:44 76° W 21:12:28 10° N
DEBRIS 3.3 21:08:47 10° N 21:10:03 22° NE 21:10:03 22° NE
Cosmos 1655 Rocket 3.9 21:05:39 10° S 21:11:55 83° E 21:18:06 10° N
ARIANE 5 DEB (SYLDA) 3.8 21:02:33 10° W 21:12:16 66° S 21:14:18 29° ESE
FREGAT/IRIS 3.5 21:13:25 14° S 21:15:56 49° W 21:18:56 10° NNW
Hubble Space Telescope 3.6 21:14:07 10° WNW 21:16:36 15° NNW 21:19:06 10° N
CZ-4B DEB 3.0 21:21:40 51° ENE 21:21:40 51° ENE 21:24:44 10° N
NOSS 3-1 (C) 3.1 21:17:51 10° SSW 21:23:34 72° ESE 21:29:15 10° NNE
Spot 2 Rocket 3.6 21:18:59 11° S 21:23:52 74° WSW 21:28:53 10° NNW
Helios 1A 3.9 21:21:34 10° S 21:25:40 48° WSW 21:29:45 10° NNW
Cosmos 2219 3.3 21:22:54 10° S 21:28:28 52° ESE 21:34:01 10° NNE
Cosmos 1743 Rocket 3.5 21:25:13 12° S 21:29:19 87° E 21:33:47 10° N
Ariane H10-3 3.8 20:46:26 10° W 21:30:42 59° S 21:33:27 36° SE
Cosmos 1500 Rocket 3.5 21:35:16 61° E 21:35:16 61° E 21:39:24 10° NNE
H-2A R/B 3.5 21:39:23 10° WSW 21:43:57 76° NNW 22:21:40 10° ENE
H-2A R/B 3.5 21:39:24 10° WSW 21:43:58 76° NNW 22:21:40 10° ENE
H-2A R/B 3.5 21:39:23 10° WSW 21:43:58 76° NNW 22:21:40 10° ENE
Cosmos 2221 2.8 21:42:58 10° NNW 21:47:13 66° W 21:47:58 54° SW
Resurs 01 Rocket 3.2 21:44:10 13° SSW 21:47:32 32° WSW 21:51:29 10° NW
Ariane H10 4.3 21:47:49 10° WNW 21:49:39 16° NNW 21:49:39 16° NNW
FENGYUN 3A 3.8 21:50:42 54° ENE 21:50:42 54° ENE 21:55:33 10° N
Skynet4D Del rocket 4.1 21:50:58 10° SW 21:58:10 60° SSE 21:58:10 60° SSE
Cosmos 2266 Rocket 3.9 21:59:11 69° ESE 21:59:32 71° E 22:05:48 10° N
Cosmos 2322 Rocket 4.0 21:56:29 10° NNE 21:58:21 18° NNE 21:58:21 18° NNE
Nimbus 7 Rocket 4.2 21:56:26 10° NNE 22:02:18 83° ESE 22:02:44 76° SSE
Cosmos 1980 Rocket 2.3 22:03:50 10° NNW 22:09:28 70° WSW 22:09:38 69° WSW
SL-16 R/B 4.0 22:07:31 10° NNE 22:09:21 19° NNE 22:09:21 19° NNE
Cosmos 1697 Rocket 4.2 22:10:04 10° NW 22:14:55 30° WSW 22:16:54 24° SW
ALOS 3.7 22:23:57 35° NW 22:23:57 35° NW 22:26:55 10° NNW
CZ-3C R/B 3.6 20:08:34 10° WSW 22:24:55 90° S 22:28:59 50° ENE
ARIANE 44LP R/B 4.3 21:43:49 10° W 22:34:23 78° N 22:35:01 74° NE
Ariane H10+ 3.4 22:36:08 10° WNW 23:05:52 10° E 22:40:17 53° N
Ariane H10+ 3.4 22:36:09 10° WNW 23:05:52 10° E 22:40:17 53° N
Ariane H10+ 3.4 22:36:09 10° WNW 23:05:52 10° E 22:40:16 53° N
Ariane H10+ 3.4 22:36:09 10° WNW 23:05:51 10° E 22:40:17 53° N
